DELTA 1 DEB, 28443

Orbit data source: Space-Track

DELTA 1 DEB, 28443 is space debris in LEO originally from a launch on Thu, 08 Feb 1962 UTC launched from the Air Force Eastern Test Range (AFETR). Debris objects in space refer to the collection of defunct objects orbiting the Earth. Examples of debris include non-operational satellites, rocket bodies, and fragments generated from explosions, collisions, or faulty payload assembly.

Loading next visibility...
Identifier
28443, 1962-002E
Orbit
LEO
Last TLE update
22 hours ago
Origin
Manufacturer
LM/EW
Mission
Spacecraft
Bus & Motor
Unknown
Mass
Unknown
Launch date (UTC)
1962-02-08 (63 years ago)
Launch vehicle
Unknown
Launch site
Air Force Eastern Test Range (AFETR)
Object type
Payload
Rocket body
Debris
Shape & HBR
Unknown
Radar Cross Section
Small (<0.1 m²)

Expand to show TLE details & history

TLE from 22 hours ago
0 DELTA 1 DEB
1 28443U 62002E   25128.43953950  .00000787  00000-0  20314-3 0  9992
2 28443  48.2669 142.8448 0072269 350.6117 153.5758 14.58101061248261
Epoch: 2025-05-08T10:32Z
Definitive object data (Epoch: 2025-05-08T10:32:56.212Z)
Latitude
25.72376°
Longitude
-87.20554°
Altitude
745.732 km
Speed
7.461 km/s
True Right ascension
19h 50m 09s
True Declination
25° 35' 22"
Sunlit
Object was in daylight at TLE epoch
Visualization TLE readout
Latitude
-22.55412°
Longitude
-44.44371°
Altitude
746.287 km
Speed
7.46 km/s
Apparent Right ascension
01h 01m 20s
Apparent Declination
-38° 35' 19"
Sunlit
Object is in daylight
Visualization observer readout
Local Sidereal Time
16:23:15
Azimuth
104.792° ESE
Elevation
-51.418°
Doppler factor
1
Orbital elements
Apogee altitude
751.497 km
Perigee altitude
649.186 km
Semi-major axis
7,078.478 km
Eccentricity
0.0072269
Inclination
48.2669°
RAAN
142.8448°
Arg. of periapsis
350.6117°
True anomaly
153.94137°
Mean anomaly
153.5758°
Eccentric anomaly
153.75888°
Mean motion
3.64446 °/min
BSTAR
0.00020314
Orbital period
98.78 mins
Loading maneuver chart data...
Loading SW <> Apogee altitude chart data...
Loading historical data...
Loading historical data...
Loading historical data...
Loading historical data...
Loading historical data...
Loading historical data...
Loading historical data...
Other satellites on launch #2 in the year 1962 (1962-02-08 UTC)

DELTA 1 DEB Visibility forecast

Observer location: undefined°, undefined°

Span
Click to sort rows by Start time (UTC) header in descending order
Start Az.
Max El. time (UTC)
Max El. Az.
Max El.
End time (UTC)
End Az.
9 mins2025-05-09 09:22:07.934Z304.31° NW2025-05-09 09:27:07.934Z61.476° ENE42.111°2025-05-09 09:31:07.934Z109.652° ESE
7 mins2025-05-09 11:07:07.934Z270.513° WNW2025-05-09 11:10:07.934Z217.906° SW26.75°2025-05-09 11:14:07.934Z164.929° S
7 mins2025-05-10 03:11:07.934Z208.694° SW2025-05-10 03:14:07.934Z155.19° SSE35.827°2025-05-10 03:18:07.934Z72.036° E
7 mins2025-05-10 04:55:07.934Z274.743° WNW2025-05-10 04:58:07.934Z349.191° N36.462°2025-05-10 05:02:07.934Z52.182° ENE
7 mins2025-05-10 06:39:07.934Z308.203° NW2025-05-10 06:42:07.934Z1.109° NNE27.274°2025-05-10 06:46:07.934Z59.919° ENE
|